﻿_id,日時,平均風速(m/s),平均風向,最大瞬間風速(m/s),最大風速時風向,気温(℃),湿度(%),10分間移動積算雨量(mm),1時間移動積算雨量(mm),日雨量(mm),累計雨量(mm)
1,2021-12-27T00:00:00,0,静穏,0,東北東,-0.9,96.2,0.5,1,11.5,12
2,2021-12-27T00:01:00,0,静穏,0,東北東,-0.9,96.3,0.5,1,0,12
3,2021-12-27T00:02:00,0,静穏,0,東北東,-0.9,96.3,0.5,1,0,12
4,2021-12-27T00:03:00,0,静穏,0,南南東,-0.8,96.4,0.5,1,0,12
5,2021-12-27T00:04:00,0,静穏,0,南南東,-0.8,96.3,0.5,1,0,12
6,2021-12-27T00:05:00,0,静穏,0,南南東,-0.9,96.2,0.5,1,0,12
7,2021-12-27T00:06:00,0,静穏,0,南南東,-1,96,0.5,1,0,12
8,2021-12-27T00:07:00,0,静穏,0,南南東,-1,96,0.5,1,0,12
9,2021-12-27T00:08:00,0,静穏,0,南南東,-1,96.1,0,1,0,12
10,2021-12-27T00:09:00,0,静穏,0,南南東,-1,96.2,0,1,0,12
11,2021-12-27T00:10:00,0,静穏,0,南南東,-0.9,96.2,0,1,0,12
12,2021-12-27T00:11:00,0,静穏,0,南南東,-1,96.2,0,1,0,12
13,2021-12-27T00:12:00,0,静穏,0,南南東,-0.9,96.2,0,1,0,12
14,2021-12-27T00:13:00,0,静穏,0,南南西,-0.9,96.3,0,1,0,12
15,2021-12-27T00:14:00,0,静穏,0,南南西,-0.9,96.3,0,1,0,12
16,2021-12-27T00:15:00,0,静穏,0,南南西,-0.9,96.2,0.5,1.5,0.5,12.5
17,2021-12-27T00:16:00,0,静穏,0,南南西,-0.9,96.2,0.5,1.5,0.5,12.5
18,2021-12-27T00:17:00,0,静穏,0,南南西,-0.9,96.2,0.5,1.5,0.5,12.5
19,2021-12-27T00:18:00,0,静穏,0,南南西,-1,96.1,0.5,1.5,0.5,12.5
20,2021-12-27T00:19:00,0,静穏,0,南南西,-1,96.1,0.5,1.5,0.5,12.5
21,2021-12-27T00:20:00,0,静穏,0,南南西,-1,96.2,0.5,1.5,0.5,12.5
22,2021-12-27T00:21:00,0,静穏,0,南南西,-1,96.2,0.5,1.5,0.5,12.5
23,2021-12-27T00:22:00,0,静穏,0,南南西,-1,96.2,0.5,1.5,0.5,12.5
24,2021-12-27T00:23:00,0,静穏,0,東,-1,96.2,0.5,1.5,0.5,12.5
25,2021-12-27T00:24:00,0,静穏,0,東,-1,96.2,0.5,1.5,0.5,12.5
26,2021-12-27T00:25:00,0,静穏,0,東,-1,96.3,0,1.5,0.5,12.5
27,2021-12-27T00:26:00,0,静穏,0,東,-1,96.2,0,1.5,0.5,12.5
28,2021-12-27T00:27:00,0,静穏,0,東,-1,96.1,0.5,2,1,13
29,2021-12-27T00:28:00,0,静穏,0,東,-1.1,96.1,0.5,2,1,13
30,2021-12-27T00:29:00,0,静穏,0,東,-1.1,96.2,0.5,2,1,13
31,2021-12-27T00:30:00,0,静穏,0,東,-1,96.2,0.5,2,1,13
32,2021-12-27T00:31:00,0,静穏,0,東,-1,96.3,0.5,2,1,13
33,2021-12-27T00:32:00,0,静穏,0,東,-1,96.3,0.5,2,1,13
34,2021-12-27T00:33:00,0,静穏,0,東南東,-1.1,96.2,0.5,2,1,13
35,2021-12-27T00:34:00,0,静穏,0,東南東,-1,96.2,0.5,2,1,13
36,2021-12-27T00:35:00,0,静穏,0,東南東,-1.1,96.2,0.5,2,1,13
37,2021-12-27T00:36:00,0,静穏,0,東南東,-1.1,96.2,1,2.5,1.5,13.5
38,2021-12-27T00:37:00,0,静穏,0,東南東,-1.1,96.2,0.5,2.5,1.5,13.5
39,2021-12-27T00:38:00,0,静穏,0,東南東,-1.1,96.2,0.5,2.5,1.5,13.5
40,2021-12-27T00:39:00,0,静穏,0,東南東,-1,96.2,0.5,2.5,1.5,13.5
41,2021-12-27T00:40:00,0,静穏,0,東南東,-1,96.4,0.5,2.5,1.5,13.5
42,2021-12-27T00:41:00,0,静穏,0,東南東,-1.1,96.2,0.5,2.5,1.5,13.5
43,2021-12-27T00:42:00,0,静穏,0,東南東,-1.2,96.1,0.5,2.5,1.5,13.5
44,2021-12-27T00:43:00,0,静穏,0,東南東,-1.1,96.2,0.5,2.5,1.5,13.5
45,2021-12-27T00:44:00,0,静穏,0,東南東,-1.1,96.3,0.5,2.5,1.5,13.5
46,2021-12-27T00:45:00,0,静穏,0,東南東,-1.1,96.2,0.5,2.5,1.5,13.5
47,2021-12-27T00:46:00,0,静穏,0,東南東,-1.2,96.2,0,2,1.5,13.5
48,2021-12-27T00:47:00,0,静穏,0,東南東,-1.2,96,0,2,1.5,13.5
49,2021-12-27T00:48:00,0,静穏,0,東南東,-1.2,96.1,0,2,1.5,13.5
50,2021-12-27T00:49:00,0,静穏,0,東南東,-1.2,96.2,0,2,1.5,13.5
51,2021-12-27T00:50:00,0,静穏,0,東南東,-1.2,96.2,0,2,1.5,13.5
52,2021-12-27T00:51:00,0,静穏,0,東南東,-1.2,96.2,0,2,1.5,13.5
53,2021-12-27T00:52:00,0,静穏,0,東南東,-1.2,96.3,0,2,1.5,13.5
54,2021-12-27T00:53:00,0,静穏,0,東,-1.2,96.3,0,2,1.5,13.5
55,2021-12-27T00:54:00,0,静穏,0,東,-1.2,96.3,0,2,1.5,13.5
56,2021-12-27T00:55:00,0,静穏,0,東,-1.2,96.3,0,2,1.5,13.5
57,2021-12-27T00:56:00,0,静穏,0,東,-1.1,96.3,0,2,1.5,13.5
58,2021-12-27T00:57:00,0,静穏,0,東,-1.2,96.2,0,2,1.5,13.5
59,2021-12-27T00:58:00,0,静穏,0,東,-1.3,96.2,0.5,2,2,14
60,2021-12-27T00:59:00,,"",,"",,,,,,
61,2021-12-27T01:00:00,0,静穏,0,東,-1.2,96.3,0.5,2,2,14
62,2021-12-27T01:01:00,0,静穏,0,東,-1.1,96.3,0.5,2,2,14
63,2021-12-27T01:02:00,0,静穏,0,東,-1.2,96.3,0.5,2,2,14
64,2021-12-27T01:03:00,0,静穏,0,北東,-1.2,96.3,0.5,2,2,14
65,2021-12-27T01:04:00,0,静穏,0,北東,-1.2,96.2,0.5,2,2,14
66,2021-12-27T01:05:00,0,静穏,0,北東,-1.3,96.2,0.5,2,2,14
67,2021-12-27T01:06:00,0,静穏,0,北東,-1.3,96.1,0.5,2,2,14
68,2021-12-27T01:07:00,0,静穏,0,北東,-1.3,96.2,0.5,2,2,14
69,2021-12-27T01:08:00,0,静穏,0,北東,-1.2,96.2,0,2,2,14
70,2021-12-27T01:09:00,0,静穏,0,北東,-1.2,96.2,0,2,2,14
71,2021-12-27T01:10:00,0,静穏,0,北東,-1.2,96.3,0,2,2,14
72,2021-12-27T01:11:00,0,静穏,0,北東,-1.2,96.3,0,2,2,14
73,2021-12-27T01:12:00,0,静穏,0,北東,-1.2,96.2,0,2,2,14
74,2021-12-27T01:13:00,0,静穏,0,北東,-1.2,96.2,0,2,2,14
75,2021-12-27T01:14:00,0,静穏,0,北東,-1.2,96.2,0,2,2,14
76,2021-12-27T01:15:00,0,静穏,0,北東,-1.2,96.3,0,1.5,2,14
77,2021-12-27T01:16:00,0,静穏,0,北東,-1.2,96.3,0,1.5,2,14
78,2021-12-27T01:17:00,0,静穏,0,北東,-1.2,96.2,0,1.5,2,14
79,2021-12-27T01:18:00,0,静穏,0,北東,-1.2,96.2,0,1.5,2,14
80,2021-12-27T01:19:00,0,静穏,0,北東,-1.1,96.3,0,1.5,2,14
81,2021-12-27T01:20:00,0,静穏,0,北東,-1.1,96.3,0,1.5,2,14
82,2021-12-27T01:21:00,0,静穏,0,北東,-1.1,96.2,0,1.5,2,14
83,2021-12-27T01:22:00,0,静穏,0,北東,-1.1,96.3,0,1.5,2,14
84,2021-12-27T01:23:00,0,静穏,0,東,-1.1,96.3,0,1.5,2,14
85,2021-12-27T01:24:00,0,静穏,0,東,-1.1,96.2,0,1.5,2,14
86,2021-12-27T01:25:00,0,静穏,0,東,-1,96.2,0,1.5,2,14
87,2021-12-27T01:26:00,0,静穏,0,東,-1,96.2,0,1.5,2,14
88,2021-12-27T01:27:00,0,静穏,0,東,-1,96.2,0,1,2,14
89,2021-12-27T01:28:00,0,静穏,0,東,-1,96.1,0,1,2,14
90,2021-12-27T01:29:00,0,静穏,0,東,-1.1,96,0,1,2,14
91,2021-12-27T01:30:00,0,静穏,0,東,-1.1,96,0,1,2,14
92,2021-12-27T01:31:00,0,静穏,0,東,-1.2,95.9,0.5,1.5,2.5,14.5
93,2021-12-27T01:32:00,0,静穏,0,東,-1.2,95.9,0.5,1.5,2.5,14.5
94,2021-12-27T01:33:00,0,静穏,0,北東,-1.1,96,0.5,1.5,2.5,14.5
95,2021-12-27T01:34:00,0,静穏,0,北東,-1.1,95.9,0.5,1.5,2.5,14.5
96,2021-12-27T01:35:00,0,静穏,0,北東,-1.2,95.8,0.5,1.5,2.5,14.5
97,2021-12-27T01:36:00,0,静穏,0,北東,-1.2,95.7,0.5,1,2.5,14.5
98,2021-12-27T01:37:00,0,静穏,0,北東,-1.2,95.7,0.5,1,2.5,14.5
99,2021-12-27T01:38:00,0,静穏,0,北東,-1.2,95.8,0.5,1,2.5,14.5
100,2021-12-27T01:39:00,0,静穏,0,北東,-1.1,95.8,0.5,1,2.5,14.5
101,2021-12-27T01:40:00,0,静穏,0,北東,-1.2,95.7,0.5,1,2.5,14.5
102,2021-12-27T01:41:00,0,静穏,0,北東,-1.3,95.4,0,1,2.5,14.5
103,2021-12-27T01:42:00,0,静穏,0,北東,-1.5,95.2,0,1,2.5,14.5
104,2021-12-27T01:43:00,0,静穏,0,南南西,-1.6,94.8,0,1,2.5,14.5
105,2021-12-27T01:44:00,0,静穏,0,南南西,-1.4,95.4,0,1,2.5,14.5
106,2021-12-27T01:45:00,0,静穏,0,南南西,-1.4,95.5,0,1,2.5,14.5
107,2021-12-27T01:46:00,0,静穏,0,南南西,-1.3,95.6,0,1,2.5,14.5
108,2021-12-27T01:47:00,0,静穏,0,南南西,-1.3,95.5,0,1,2.5,14.5
109,2021-12-27T01:48:00,0,静穏,0,南南西,-1.4,95.5,0,1,2.5,14.5
110,2021-12-27T01:49:00,0,静穏,0,南南西,-1.4,95.4,0,1,2.5,14.5
111,2021-12-27T01:50:00,0,静穏,0,南南西,-1.3,95.4,0,1,2.5,14.5
112,2021-12-27T01:51:00,0,静穏,0,南南西,-1.4,95.4,0,1,2.5,14.5
113,2021-12-27T01:52:00,0,静穏,0,南南西,-1.3,95.4,0,1,2.5,14.5
114,2021-12-27T01:53:00,0,静穏,0,南西,-1.3,95.4,0,1,2.5,14.5
115,2021-12-27T01:54:00,0,静穏,0,南西,-1.4,95.2,0,1,2.5,14.5
116,2021-12-27T01:55:00,0,静穏,0,南西,-1.4,95.2,0,1,2.5,14.5
117,2021-12-27T01:56:00,0,静穏,0,南西,-1.4,95.2,0,1,2.5,14.5
118,2021-12-27T01:57:00,0,静穏,0,南西,-1.4,95.2,0,1,2.5,14.5
119,2021-12-27T01:58:00,0,静穏,0,南西,-1.4,95.2,0,0.5,2.5,14.5
120,2021-12-27T01:59:00,0,静穏,0,南西,-1.4,95.2,0,0.5,2.5,14.5
121,2021-12-27T02:00:00,0,静穏,0,南西,-1.4,95.3,0,0.5,2.5,14.5
122,2021-12-27T02:01:00,0,静穏,0,南西,-1.3,95.4,0,0.5,2.5,14.5
123,2021-12-27T02:02:00,0,静穏,0,南西,-1.3,95.3,0,0.5,2.5,14.5
124,2021-12-27T02:03:00,0,静穏,0,南南西,-1.4,95.2,0,0.5,2.5,14.5
125,2021-12-27T02:04:00,0,静穏,0,南南西,-1.5,95,0,0.5,2.5,14.5
126,2021-12-27T02:05:00,0,静穏,0,南南西,-1.5,94.9,0,0.5,2.5,14.5
127,2021-12-27T02:06:00,0,静穏,0,南南西,-1.5,95,0,0.5,2.5,14.5
128,2021-12-27T02:07:00,0,静穏,0,南南西,-1.5,94.9,0,0.5,2.5,14.5
129,2021-12-27T02:08:00,0,静穏,0,南南西,-1.6,95,0,0.5,2.5,14.5
130,2021-12-27T02:09:00,0,静穏,0,南南西,-1.6,95.1,0,0.5,2.5,14.5
131,2021-12-27T02:10:00,0,静穏,0,南南西,-1.6,94.9,0,0.5,2.5,14.5
132,2021-12-27T02:11:00,0,静穏,0,南南西,-1.7,94.5,0,0.5,2.5,14.5
133,2021-12-27T02:12:00,0,静穏,0,南南西,-1.8,94.7,0,0.5,2.5,14.5
134,2021-12-27T02:13:00,0,静穏,0,南南西,-1.7,95,0,0.5,2.5,14.5
135,2021-12-27T02:14:00,0,静穏,0,南南西,-1.7,95.1,0,0.5,2.5,14.5
136,2021-12-27T02:15:00,0,静穏,0,南南西,-1.7,95.3,0,0.5,2.5,14.5
137,2021-12-27T02:16:00,0,静穏,0,南南西,-1.6,95.3,0,0.5,2.5,14.5
138,2021-12-27T02:17:00,0,静穏,0,南南西,-1.6,95.5,0,0.5,2.5,14.5
139,2021-12-27T02:18:00,0,静穏,0,南南西,-1.6,95.4,0,0.5,2.5,14.5
140,2021-12-27T02:19:00,0,静穏,0,南南西,-1.7,95.1,0,0.5,2.5,14.5
141,2021-12-27T02:20:00,0,静穏,0,南南西,-1.6,95.3,0,0.5,2.5,14.5
142,2021-12-27T02:21:00,0,静穏,0,南南西,-1.5,95.5,0,0.5,2.5,14.5
143,2021-12-27T02:22:00,0,静穏,0,南南西,-1.5,95.4,0,0.5,2.5,14.5
144,2021-12-27T02:23:00,0,静穏,0,南南西,-1.6,95.3,0,0.5,2.5,14.5
145,2021-12-27T02:24:00,0,静穏,0,南南西,-1.7,95,0,0.5,2.5,14.5
146,2021-12-27T02:25:00,0,静穏,0,南南西,-1.6,95.4,0,0.5,2.5,14.5
147,2021-12-27T02:26:00,0,静穏,0,南南西,-1.5,95.4,0,0.5,2.5,14.5
148,2021-12-27T02:27:00,0,静穏,0,南南西,-1.5,95.5,0,0.5,2.5,14.5
149,2021-12-27T02:28:00,0,静穏,0,南南西,-1.5,95.3,0,0.5,2.5,14.5
150,2021-12-27T02:29:00,0,静穏,0,南南西,-1.6,95.3,0,0.5,2.5,14.5
151,2021-12-27T02:30:00,0,静穏,0,南南西,-1.6,95.3,0,0.5,2.5,14.5
152,2021-12-27T02:31:00,0,静穏,0,南南西,-1.6,95.3,0,0,2.5,14.5
153,2021-12-27T02:32:00,0,静穏,0,南南西,-1.6,95.3,0,0,2.5,14.5
154,2021-12-27T02:33:00,0,静穏,0,南西,-1.6,95.2,0,0,2.5,14.5
155,2021-12-27T02:34:00,0,静穏,0,南西,-1.6,95.2,0,0,2.5,14.5
156,2021-12-27T02:35:00,0,静穏,0,南西,-1.7,95.1,0,0,2.5,14.5
157,2021-12-27T02:36:00,0,静穏,0,南西,-1.7,95.2,0,0,2.5,14.5
158,2021-12-27T02:37:00,0,静穏,0,南西,-1.7,95.2,0,0,2.5,14.5
159,2021-12-27T02:38:00,0,静穏,0,南西,-1.7,95.1,0,0,2.5,14.5
160,2021-12-27T02:39:00,0,静穏,0,南西,-1.7,95,0,0,2.5,14.5
161,2021-12-27T02:40:00,0,静穏,0,南西,-1.8,95.1,0,0,2.5,14.5
162,2021-12-27T02:41:00,0,静穏,0,南西,-1.8,95.1,0,0,2.5,14.5
163,2021-12-27T02:42:00,0,静穏,0,南西,-1.8,94.9,0,0,2.5,14.5
164,2021-12-27T02:43:00,0,静穏,0,南,-1.8,94.9,0,0,2.5,14.5
165,2021-12-27T02:44:00,0,静穏,0,南,-1.9,94.7,0,0,2.5,14.5
166,2021-12-27T02:45:00,0,静穏,0,南,-1.9,94.9,0,0,2.5,14.5
167,2021-12-27T02:46:00,0,静穏,0,南,-1.8,95.2,0,0,2.5,14.5
168,2021-12-27T02:47:00,0,静穏,0,南,-1.9,95.1,0,0,2.5,14.5
169,2021-12-27T02:48:00,0,静穏,0,南,-1.8,95.2,0,0,2.5,14.5
170,2021-12-27T02:49:00,0,静穏,0,南,-1.8,95.2,0,0,2.5,14.5
171,2021-12-27T02:50:00,0,静穏,0,南,-1.9,95.1,0,0,2.5,14.5
172,2021-12-27T02:51:00,0,静穏,0,南,-1.9,94.9,0,0,2.5,14.5
173,2021-12-27T02:52:00,0,静穏,0,南,-1.9,94.9,0,0,2.5,14.5
174,2021-12-27T02:53:00,0,静穏,0,南南西,-1.9,95,0,0,2.5,14.5
175,2021-12-27T02:54:00,0,静穏,0,南南西,-1.9,95.1,0,0,2.5,14.5
176,2021-12-27T02:55:00,0,静穏,0,南南西,-1.9,95.3,0,0,2.5,14.5
177,2021-12-27T02:56:00,0,静穏,0,南南西,-1.9,95.3,0,0,2.5,14.5
178,2021-12-27T02:57:00,0,静穏,0,南南西,-1.9,95.2,0,0,2.5,14.5
179,2021-12-27T02:58:00,0,静穏,0,南南西,-1.9,95.2,0,0,2.5,14.5
180,2021-12-27T02:59:00,0,静穏,0,南南西,-1.8,95.3,0,0,2.5,14.5
181,2021-12-27T03:00:00,0,静穏,0,南南西,-1.8,95.3,0,0,2.5,14.5
182,2021-12-27T03:01:00,0,静穏,0,南南西,-1.8,95.3,0,0,2.5,14.5
183,2021-12-27T03:02:00,0,静穏,0,南南西,-1.8,95.3,0,0,2.5,14.5
184,2021-12-27T03:03:00,0,静穏,0,南南西,-1.8,95.3,0,0,2.5,14.5
185,2021-12-27T03:04:00,0,静穏,0,南南西,-1.8,95.3,0,0,2.5,14.5
186,2021-12-27T03:05:00,0,静穏,0,南南西,-1.8,95.3,0,0,2.5,14.5
187,2021-12-27T03:06:00,0,静穏,0,南南西,-1.8,95.3,0,0,2.5,14.5
188,2021-12-27T03:07:00,0,静穏,0,南南西,-1.8,95.3,0,0,2.5,14.5
189,2021-12-27T03:08:00,0,静穏,0,南南西,-1.8,95.2,0,0,2.5,14.5
190,2021-12-27T03:09:00,0,静穏,0,南南西,-1.8,95.2,0,0,2.5,14.5
191,2021-12-27T03:10:00,0,静穏,0,南南西,-1.8,95.3,0.5,0.5,3,15
192,2021-12-27T03:11:00,0,静穏,0,南南西,-1.8,95.3,0.5,0.5,3,15
193,2021-12-27T03:12:00,0,静穏,0,南南西,-1.8,95.2,0.5,0.5,3,15
194,2021-12-27T03:13:00,0,静穏,0,南南西,-1.8,95.2,0.5,0.5,3,15
195,2021-12-27T03:14:00,0,静穏,0,南南西,-1.8,95.2,0.5,0.5,3,15
196,2021-12-27T03:15:00,0,静穏,0,南南西,-1.9,95.2,0.5,0.5,3,15
197,2021-12-27T03:16:00,0,静穏,0,南南西,-1.8,95.2,0.5,0.5,3,15
198,2021-12-27T03:17:00,0,静穏,0,南南西,-1.8,95.2,0.5,0.5,3,15
199,2021-12-27T03:18:00,0,静穏,0,南南西,-1.8,95.3,0.5,0.5,3,15
200,2021-12-27T03:19:00,0,静穏,0,南南西,-1.8,95.3,0.5,0.5,3,15
201,2021-12-27T03:20:00,0,静穏,0,南南西,-1.7,95.2,0,0.5,3,15
202,2021-12-27T03:21:00,0,静穏,0,南南西,-1.7,95.2,0,0.5,3,15
203,2021-12-27T03:22:00,0,静穏,0,南南西,-1.7,95.1,0,0.5,3,15
204,2021-12-27T03:23:00,0,静穏,0,南南西,-1.7,95.1,0,0.5,3,15
205,2021-12-27T03:24:00,0,静穏,0,南南西,-1.7,95,0,0.5,3,15
206,2021-12-27T03:25:00,0,静穏,0,南南西,-1.7,94.7,0,0.5,3,15
207,2021-12-27T03:26:00,0,静穏,0,南南西,-1.6,94.7,0,0.5,3,15
208,2021-12-27T03:27:00,0,静穏,0,南南西,-1.6,94.5,0,0.5,3,15
209,2021-12-27T03:28:00,0,静穏,0,南南西,-1.6,94.2,0,0.5,3,15
210,2021-12-27T03:29:00,0,静穏,0,南南西,-1.7,94.1,0,0.5,3,15
211,2021-12-27T03:30:00,0,静穏,0,南南西,-1.7,94,0,0.5,3,15
212,2021-12-27T03:31:00,0,静穏,0,南南西,-1.7,93.8,0,0.5,3,15
213,2021-12-27T03:32:00,0,静穏,0,南南西,-1.7,93.8,0,0.5,3,15
214,2021-12-27T03:33:00,0,静穏,0,南西,-1.7,93.6,0,0.5,3,15
215,2021-12-27T03:34:00,0,静穏,0,南西,-1.7,93.4,0,0.5,3,15
216,2021-12-27T03:35:00,0,静穏,0,南西,-1.7,93.2,0,0.5,3,15
217,2021-12-27T03:36:00,0,静穏,0,南西,-1.7,93,0,0.5,3,15
218,2021-12-27T03:37:00,0,静穏,0,南西,-1.7,92.9,0,0.5,3,15
219,2021-12-27T03:38:00,0,静穏,0,南西,-1.7,92.9,0,0.5,3,15
220,2021-12-27T03:39:00,0,静穏,0,南西,-1.8,92.8,0,0.5,3,15
221,2021-12-27T03:40:00,0,静穏,0,南西,-1.8,92.7,0,0.5,3,15
222,2021-12-27T03:41:00,0,静穏,0,南西,-1.8,92.6,0,0.5,3,15
223,2021-12-27T03:42:00,0,静穏,0,南西,-1.9,92.7,0,0.5,3,15
224,2021-12-27T03:43:00,0,静穏,0,南,-1.9,92.7,0,0.5,3,15
225,2021-12-27T03:44:00,0,静穏,0,南,-1.9,92.8,0,0.5,3,15
226,2021-12-27T03:45:00,0,静穏,0,南,-1.9,92.9,0,0.5,3,15
227,2021-12-27T03:46:00,0,静穏,0,南,-1.9,93,0,0.5,3,15
228,2021-12-27T03:47:00,0,静穏,0,南,-2,93.2,0,0.5,3,15
229,2021-12-27T03:48:00,0,静穏,0,南,-1.9,93.3,0,0.5,3,15
230,2021-12-27T03:49:00,0,静穏,0,南,-2,93.4,0,0.5,3,15
231,2021-12-27T03:50:00,0,静穏,0,南,-2,93.5,0,0.5,3,15
232,2021-12-27T03:51:00,0,静穏,0,南,-2,93.7,0,0.5,3,15
233,2021-12-27T03:52:00,0,静穏,0,南,-1.9,93.8,0,0.5,3,15
234,2021-12-27T03:53:00,0,静穏,0,南,-2,93.8,0,0.5,3,15
235,2021-12-27T03:54:00,0,静穏,0,南,-1.9,93.9,0,0.5,3,15
236,2021-12-27T03:55:00,0,静穏,0,南,-1.9,94,0,0.5,3,15
237,2021-12-27T03:56:00,0,静穏,0,南,-2,94,0,0.5,3,15
238,2021-12-27T03:57:00,0,静穏,0,南,-2,94,0,0.5,3,15
239,2021-12-27T03:58:00,0,静穏,0,南,-2,94.1,0,0.5,3,15
240,2021-12-27T03:59:00,0,静穏,0,南,-2,94,0,0.5,3,15
241,2021-12-27T04:00:00,0,静穏,0,南,-2.1,94,0,0.5,3,15
242,2021-12-27T04:01:00,0,静穏,0,南,-2,94.1,0,0.5,3,15
243,2021-12-27T04:02:00,0,静穏,0,南,-2,94.2,0,0.5,3,15
244,2021-12-27T04:03:00,0,静穏,0,南,-2,94.1,0,0.5,3,15
245,2021-12-27T04:04:00,0,静穏,0,南,-2,94.1,0,0.5,3,15
246,2021-12-27T04:05:00,0,静穏,0,南,-2,94.1,0,0.5,3,15
247,2021-12-27T04:06:00,0,静穏,0,南,-2,94.1,0,0.5,3,15
248,2021-12-27T04:07:00,0,静穏,0,南,-2,94,0,0.5,3,15
249,2021-12-27T04:08:00,0,静穏,0,南,-2,94,0,0.5,3,15
250,2021-12-27T04:09:00,0,静穏,0,南,-2,93.9,0,0.5,3,15
251,2021-12-27T04:10:00,0,静穏,0,南,-2,93.7,0,0,3,15
252,2021-12-27T04:11:00,0,静穏,0,南,-2,93.4,0.5,0.5,3.5,15.5
253,2021-12-27T04:12:00,0,静穏,0,南,-2,93.5,0.5,0.5,3.5,15.5
254,2021-12-27T04:13:00,0,静穏,0,南,-2,93.3,0.5,0.5,3.5,15.5
255,2021-12-27T04:14:00,0,静穏,0,南,-2,93.3,0.5,0.5,3.5,15.5
256,2021-12-27T04:15:00,0,静穏,0,南,-2,93.1,0.5,0.5,3.5,15.5
257,2021-12-27T04:16:00,0,静穏,0,南,-2,93,0.5,0.5,3.5,15.5
258,2021-12-27T04:17:00,0,静穏,0,南,-1.9,92.8,0.5,0.5,3.5,15.5
259,2021-12-27T04:18:00,0,静穏,0,南,-1.9,92.5,0.5,0.5,3.5,15.5
260,2021-12-27T04:19:00,0,静穏,0,南,-1.9,92.3,0.5,0.5,3.5,15.5
261,2021-12-27T04:20:00,0,静穏,0,南,-1.9,92.1,0.5,0.5,3.5,15.5
262,2021-12-27T04:21:00,0,静穏,0,南,-1.9,92,0,0.5,3.5,15.5
263,2021-12-27T04:22:00,0,静穏,0,南,-1.9,91.6,0,0.5,3.5,15.5
264,2021-12-27T04:23:00,0,静穏,0,南,-1.9,91.2,0,0.5,3.5,15.5
265,2021-12-27T04:24:00,0,静穏,0,南,-1.9,91,0,0.5,3.5,15.5
266,2021-12-27T04:25:00,0,静穏,0,南,-2,90.7,0,0.5,3.5,15.5
267,2021-12-27T04:26:00,0,静穏,0,南,-2,90.5,0,0.5,3.5,15.5
268,2021-12-27T04:27:00,0,静穏,0,南,-2,90.3,0,0.5,3.5,15.5
269,2021-12-27T04:28:00,0,静穏,0,南,-2,90.2,0,0.5,3.5,15.5
270,2021-12-27T04:29:00,0,静穏,0,南,-2,90.1,0,0.5,3.5,15.5
271,2021-12-27T04:30:00,0,静穏,0,南,-2,90,0,0.5,3.5,15.5
272,2021-12-27T04:31:00,0,静穏,0,南,-2.1,89.7,0,0.5,3.5,15.5
273,2021-12-27T04:32:00,0,静穏,0,南,-2.1,89.6,0,0.5,3.5,15.5
274,2021-12-27T04:33:00,0,静穏,0,南南西,-2.1,89.6,0,0.5,3.5,15.5
275,2021-12-27T04:34:00,0,静穏,0,南南西,-2.1,89.8,0,0.5,3.5,15.5
276,2021-12-27T04:35:00,0,静穏,0,南南西,-2,89.8,0,0.5,3.5,15.5
277,2021-12-27T04:36:00,0,静穏,0,南南西,-2,89.8,0,0.5,3.5,15.5
278,2021-12-27T04:37:00,0,静穏,0,南南西,-1.9,89.4,0,0.5,3.5,15.5
279,2021-12-27T04:38:00,0,静穏,0,南南西,-1.8,89,0,0.5,3.5,15.5
280,2021-12-27T04:39:00,0,静穏,0,南南西,-1.8,88.3,0,0.5,3.5,15.5
281,2021-12-27T04:40:00,0,静穏,0,南南西,-1.8,87.6,0,0.5,3.5,15.5
282,2021-12-27T04:41:00,0,静穏,0,南南西,-1.8,87.1,0,0.5,3.5,15.5
283,2021-12-27T04:42:00,0,静穏,0,南南西,-1.8,86.8,0,0.5,3.5,15.5
284,2021-12-27T04:43:00,0,静穏,0,南南西,-1.7,86.6,0,0.5,3.5,15.5
285,2021-12-27T04:44:00,0,静穏,0,南南西,-1.8,86.1,0,0.5,3.5,15.5
286,2021-12-27T04:45:00,0,静穏,0,南南西,-1.7,85.6,0,0.5,3.5,15.5
287,2021-12-27T04:46:00,0,静穏,0,南南西,-1.7,85.2,0,0.5,3.5,15.5
288,2021-12-27T04:47:00,0,静穏,0,南南西,-1.7,84.8,0,0.5,3.5,15.5
289,2021-12-27T04:48:00,0,静穏,0,南南西,-1.7,84.5,0,0.5,3.5,15.5
290,2021-12-27T04:49:00,0,静穏,0,南南西,-1.7,84.2,0,0.5,3.5,15.5
291,2021-12-27T04:50:00,0,静穏,0,南南西,-1.7,83.9,0,0.5,3.5,15.5
292,2021-12-27T04:51:00,0,静穏,0,南南西,-1.8,83.9,0,0.5,3.5,15.5
293,2021-12-27T04:52:00,0,静穏,0,南南西,-1.8,84,0,0.5,3.5,15.5
294,2021-12-27T04:53:00,0,静穏,0,南,-1.8,84,0,0.5,3.5,15.5
295,2021-12-27T04:54:00,0,静穏,0,南,-1.8,84.2,0,0.5,3.5,15.5
296,2021-12-27T04:55:00,0,静穏,0,南,-1.8,84.4,0,0.5,3.5,15.5
297,2021-12-27T04:56:00,0,静穏,0,南,-1.8,84.6,0,0.5,3.5,15.5
298,2021-12-27T04:57:00,0,静穏,0,南,-1.8,84.8,0.5,1,4,16
299,2021-12-27T04:58:00,0,静穏,0,南,-1.8,84.8,0.5,1,4,16
300,2021-12-27T04:59:00,0,静穏,0,南,-1.8,84.6,0.5,1,4,16
301,2021-12-27T05:00:00,0,静穏,0,南,-1.8,84.4,0.5,1,4,16
302,2021-12-27T05:01:00,0,静穏,0,南,-1.8,84.4,0.5,1,4,16
303,2021-12-27T05:02:00,0,静穏,0,南,-1.8,84.4,0.5,1,4,16
304,2021-12-27T05:03:00,0,静穏,0,南南西,-1.9,84.5,0.5,1,4,16
305,2021-12-27T05:04:00,0,静穏,0,南南西,-1.8,84.9,0.5,1,4,16
306,2021-12-27T05:05:00,0,静穏,0,南南西,-1.9,85.1,0.5,1,4,16
307,2021-12-27T05:06:00,0,静穏,0,南南西,-1.9,85.5,0.5,1,4,16
308,2021-12-27T05:07:00,0,静穏,0,南南西,-1.9,85.8,0,1,4,16
309,2021-12-27T05:08:00,0,静穏,0,南南西,-1.9,86.1,0,1,4,16
310,2021-12-27T05:09:00,0,静穏,0,南南西,-1.9,86.3,0,1,4,16
311,2021-12-27T05:10:00,0,静穏,0,南南西,-2,86.5,0,1,4,16
312,2021-12-27T05:11:00,0,静穏,0,南南西,-2,86.7,0,0.5,4,16
313,2021-12-27T05:12:00,0,静穏,0,南南西,-2,86.9,0,0.5,4,16
314,2021-12-27T05:13:00,0,静穏,0,南,-2,87.2,0,0.5,4,16
315,2021-12-27T05:14:00,0,静穏,0,南,-2,87.1,0,0.5,4,16
316,2021-12-27T05:15:00,0,静穏,0,南,-1.9,86.8,0,0.5,4,16
317,2021-12-27T05:16:00,0,静穏,0,南,-1.9,86.3,0,0.5,4,16
318,2021-12-27T05:17:00,0,静穏,0,南,-2,86,0,0.5,4,16
319,2021-12-27T05:18:00,0,静穏,0,南,-2,86.1,0,0.5,4,16
320,2021-12-27T05:19:00,0,静穏,0,南,-2,86,0,0.5,4,16
321,2021-12-27T05:20:00,0,静穏,0,南,-2,86.1,0,0.5,4,16
322,2021-12-27T05:21:00,0,静穏,0,南,-2,85.8,0,0.5,4,16
323,2021-12-27T05:22:00,0,静穏,0,南,-2,85.5,0,0.5,4,16
324,2021-12-27T05:23:00,0,静穏,0,南,-2,85.6,0,0.5,4,16
325,2021-12-27T05:24:00,0,静穏,0,南,-2,85.7,0,0.5,4,16
326,2021-12-27T05:25:00,0,静穏,0,南,-2,85.5,0,0.5,4,16
327,2021-12-27T05:26:00,0,静穏,0,南,-2,85.4,0,0.5,4,16
328,2021-12-27T05:27:00,0,静穏,0,南,-2,85.2,0,0.5,4,16
329,2021-12-27T05:28:00,0,静穏,0,南,-2,84.9,0,0.5,4,16
330,2021-12-27T05:29:00,0,静穏,0,南,-2,85,0,0.5,4,16
331,2021-12-27T05:30:00,0,静穏,0,南,-2,84.8,0,0.5,4,16
332,2021-12-27T05:31:00,0,静穏,0,南,-2,84.5,0,0.5,4,16
333,2021-12-27T05:32:00,0,静穏,0,南,-2.1,84.6,0,0.5,4,16
334,2021-12-27T05:33:00,0,静穏,0,南南西,-2.1,84.5,0,0.5,4,16
335,2021-12-27T05:34:00,0,静穏,0,南南西,-2.1,84.6,0,0.5,4,16
336,2021-12-27T05:35:00,0,静穏,0,南南西,-2.1,84.7,0,0.5,4,16
337,2021-12-27T05:36:00,0,静穏,0,南南西,-2.1,84.8,0,0.5,4,16
338,2021-12-27T05:37:00,0,静穏,0,南南西,-2.1,84.9,0,0.5,4,16
339,2021-12-27T05:38:00,0,静穏,0,南南西,-2.1,84.9,0,0.5,4,16
340,2021-12-27T05:39:00,0,静穏,0,南南西,-2.1,84.8,0,0.5,4,16
341,2021-12-27T05:40:00,0,静穏,0,南南西,-2,84.8,0,0.5,4,16
342,2021-12-27T05:41:00,0,静穏,0,南南西,-2.1,84.9,0,0.5,4,16
343,2021-12-27T05:42:00,0,静穏,0,南南西,-2.1,84.6,0,0.5,4,16
344,2021-12-27T05:43:00,0,静穏,0,南南西,-2,84.6,0,0.5,4,16
345,2021-12-27T05:44:00,0,静穏,0,南南西,-2,84.2,0,0.5,4,16
346,2021-12-27T05:45:00,0,静穏,0,南南西,-2,83.8,0,0.5,4,16
347,2021-12-27T05:46:00,0,静穏,0,南南西,-2.1,83.7,0,0.5,4,16
348,2021-12-27T05:47:00,0,静穏,0,南南西,-2,84.1,0,0.5,4,16
349,2021-12-27T05:48:00,0,静穏,0,南南西,-2,84.1,0,0.5,4,16
350,2021-12-27T05:49:00,0,静穏,0,南南西,-2,83.9,0,0.5,4,16
351,2021-12-27T05:50:00,0,静穏,0,南南西,-2.1,84.1,0,0.5,4,16
352,2021-12-27T05:51:00,0,静穏,0,南南西,-2,84,0,0.5,4,16
353,2021-12-27T05:52:00,0,静穏,0,南南西,-2,84.1,0,0.5,4,16
354,2021-12-27T05:53:00,0,静穏,0,南南西,-2,83.7,0,0.5,4,16
355,2021-12-27T05:54:00,0,静穏,0,南南西,-2,83.6,0,0.5,4,16
356,2021-12-27T05:55:00,0,静穏,0,南南西,-2,83.8,0,0.5,4,16
357,2021-12-27T05:56:00,0,静穏,0,南南西,-2,83.4,0,0.5,4,16
358,2021-12-27T05:57:00,0,静穏,0,南南西,-2.1,83.1,0,0,4,16
359,2021-12-27T05:58:00,0,静穏,0,南南西,-2.1,83.4,0,0,4,16
360,2021-12-27T05:59:00,0,静穏,0,南南西,-2.1,83.3,0,0,4,16
361,2021-12-27T06:00:00,0,静穏,0,南南西,-2.1,83.3,0,0,4,16
362,2021-12-27T06:01:00,0,静穏,0,南南西,-2.1,83.6,0,0,4,16
363,2021-12-27T06:02:00,0,静穏,0,南南西,-2.1,83.7,0,0,4,16
364,2021-12-27T06:03:00,0,静穏,0,南南西,-2.2,83.3,0,0,4,16
365,2021-12-27T06:04:00,0,静穏,0,南南西,-2.2,83.6,0,0,4,16
366,2021-12-27T06:05:00,0,静穏,0,南南西,-2.2,83.8,0,0,4,16
367,2021-12-27T06:06:00,0,静穏,0,南南西,-2.2,83.7,0,0,4,16
368,2021-12-27T06:07:00,0,静穏,0,南南西,-2.2,83.9,0,0,4,16
369,2021-12-27T06:08:00,0,静穏,0,南南西,-2.2,84.2,0,0,4,16
370,2021-12-27T06:09:00,0,静穏,0,南南西,-2.2,84.1,0,0,4,16
371,2021-12-27T06:10:00,0,静穏,0,南南西,-2.2,83.6,0,0,4,16
372,2021-12-27T06:11:00,0,静穏,0,南南西,-2.2,83.8,0,0,4,16
373,2021-12-27T06:12:00,0,静穏,0,南南西,-2.2,83.4,0,0,4,16
374,2021-12-27T06:13:00,0,静穏,0,南南西,-2.2,83.7,0,0,4,16
375,2021-12-27T06:14:00,0,静穏,0,南南西,-2.2,83.2,0,0,4,16
376,2021-12-27T06:15:00,0,静穏,0,南南西,-2.2,83.3,0,0,4,16
377,2021-12-27T06:16:00,0,静穏,0,南南西,-2.3,83.3,0,0,4,16
378,2021-12-27T06:17:00,0,静穏,0,南南西,-2.3,83.2,0,0,4,16
379,2021-12-27T06:18:00,0,静穏,0,南南西,-2.4,83.1,0,0,4,16
380,2021-12-27T06:19:00,0,静穏,0,南南西,-2.4,83.1,0,0,4,16
381,2021-12-27T06:20:00,0,静穏,0,南南西,-2.4,83.3,0,0,4,16
382,2021-12-27T06:21:00,0,静穏,0,南南西,-2.4,83.7,0,0,4,16
383,2021-12-27T06:22:00,0,静穏,0,南南西,-2.3,83.8,0,0,4,16
384,2021-12-27T06:23:00,0,静穏,0,南南西,-2.3,83.4,0,0,4,16
385,2021-12-27T06:24:00,0,静穏,0,南南西,-2.3,82.8,0,0,4,16
386,2021-12-27T06:25:00,0,静穏,0,南南西,-2.3,82.4,0,0,4,16
387,2021-12-27T06:26:00,0,静穏,0,南南西,-2.4,82.2,0,0,4,16
388,2021-12-27T06:27:00,0,静穏,0,南南西,-2.4,82.1,0,0,4,16
389,2021-12-27T06:28:00,0,静穏,0,南南西,-2.4,82.2,0,0,4,16
390,2021-12-27T06:29:00,0,静穏,0,南南西,-2.4,82.3,0,0,4,16
391,2021-12-27T06:30:00,0,静穏,0,南南西,-2.3,82.4,0,0,4,16
392,2021-12-27T06:31:00,0,静穏,0,南南西,-2.3,82.4,0,0,4,16
393,2021-12-27T06:32:00,0,静穏,0,南南西,-2.3,82.2,0,0,4,16
394,2021-12-27T06:33:00,0,静穏,0,南南東,-2.3,81.9,0,0,4,16
395,2021-12-27T06:34:00,0,静穏,0,南南東,-2.2,81.9,0,0,4,16
396,2021-12-27T06:35:00,0,静穏,0,南南東,-2.3,81.6,0,0,4,16
397,2021-12-27T06:36:00,0,静穏,0,南南東,-2.3,81.2,0,0,4,16
398,2021-12-27T06:37:00,0,静穏,0,南南東,-2.4,81,0,0,4,16
399,2021-12-27T06:38:00,0,静穏,0,南南東,-2.4,81.1,0,0,4,16
400,2021-12-27T06:39:00,0,静穏,0,南南東,-2.5,81.1,0,0,4,16
401,2021-12-27T06:40:00,0,静穏,0,南南東,-2.6,81.4,0,0,4,16
402,2021-12-27T06:41:00,0,静穏,0,南南東,-2.6,81.8,0,0,4,16
403,2021-12-27T06:42:00,0,静穏,0,南南東,-2.6,82.5,0,0,4,16
404,2021-12-27T06:43:00,0,静穏,0,南南西,-2.6,83.1,0,0,4,16
405,2021-12-27T06:44:00,0,静穏,0,南南西,-2.7,83.4,0,0,4,16
406,2021-12-27T06:45:00,0,静穏,0,南南西,-2.7,83.8,0,0,4,16
407,2021-12-27T06:46:00,0,静穏,0,南南西,-2.7,84,0,0,4,16
408,2021-12-27T06:47:00,0,静穏,0,南南西,-2.7,84.2,0,0,4,16
409,2021-12-27T06:48:00,0,静穏,0,南南西,-2.8,84.1,0,0,4,16
410,2021-12-27T06:49:00,0,静穏,0,南南西,-2.8,84.3,0,0,4,16
411,2021-12-27T06:50:00,0,静穏,0,南南西,-2.8,85,0,0,4,16
412,2021-12-27T06:51:00,0,静穏,0,南南西,-2.8,85.2,0,0,4,16
413,2021-12-27T06:52:00,0,静穏,0,南南西,-2.8,85.7,0,0,4,16
414,2021-12-27T06:53:00,0,静穏,0,南南西,-2.8,85.7,0,0,4,16
415,2021-12-27T06:54:00,0,静穏,0,南南西,-2.7,85.8,0,0,4,16
416,2021-12-27T06:55:00,0,静穏,0,南南西,-2.8,85.9,0,0,4,16
417,2021-12-27T06:56:00,0,静穏,0,南南西,-2.7,85.8,0,0,4,16
418,2021-12-27T06:57:00,0,静穏,0,南南西,-2.7,85.9,0,0,4,16
419,2021-12-27T06:58:00,0,静穏,0,南南西,-2.7,85.8,0,0,4,16
420,2021-12-27T06:59:00,0,静穏,0,南南西,-2.7,85.4,0,0,4,16
421,2021-12-27T07:00:00,0,静穏,0,南南西,-2.7,85.7,0,0,4,16
422,2021-12-27T07:01:00,0,静穏,0,南南西,-2.7,85.7,0,0,4,16
423,2021-12-27T07:02:00,0,静穏,0,南南西,-2.7,85.6,0,0,4,16
424,2021-12-27T07:03:00,0,静穏,0,南南西,-2.8,85.2,0,0,4,16
425,2021-12-27T07:04:00,0,静穏,0,南南西,-2.8,85.2,0,0,4,16
426,2021-12-27T07:05:00,0,静穏,0,南南西,-2.9,85.4,0,0,4,16
427,2021-12-27T07:06:00,0,静穏,0,南南西,-2.9,85.8,0,0,4,16
428,2021-12-27T07:07:00,0,静穏,0,南南西,-2.9,86.2,0,0,4,16
429,2021-12-27T07:08:00,0,静穏,0,南南西,-2.9,86.3,0,0,4,16
430,2021-12-27T07:09:00,0,静穏,0,南南西,-2.9,86.3,0,0,4,16